When you browse on this site, cookies collect data to enhance your experience and personalize the content and advertising you see.
Visit our Privacy Policy to learn more. By continuing to use the site, you agree to this use of cookies and data.
  • In Hungary
  • List of Countries
  • For 7 days
  • Water Temperature
  • Satellite Maps
  • Weather Map
  • News
  • Weather Widgets
  • user-avatar
    Login

    Hourly Weather Montana

    Today, 23 April, Tuesday

    Time Temperature Precipitation Wind Pressure Humidity
    00:00 +11°C° 0 mm 3 mps 736 mmHg 77%
    01:00 +12°C° 0 mm 2 mps 736 mmHg 79%
    02:00 +12°C° 0 mm 2 mps 737 mmHg 80%
    03:00 +10°C° 0.5 mm 2 mps 737 mmHg 82%
    04:00 +10°C° 0.5 mm 2 mps 737 mmHg 85%
    05:00 +10°C° 0.5 mm 1 mps 737 mmHg 87%
    06:00 +10°C° 1 mm 1 mps 737 mmHg 87%
    07:00 +9°C° 1 mm 2 mps 738 mmHg 87%
    08:00 +10°C° 0 mm 1 mps 738 mmHg 90%
    09:00 +9°C° 0.7 mm 2 mps 738 mmHg 87%
    10:00 +10°C° 0.7 mm 2 mps 738 mmHg 85%
    11:00 +10°C° 0.7 mm 2 mps 738 mmHg 82%
    12:00 +12°C° 0 mm 3 mps 738 mmHg 77%
    13:00 +14°C° 0 mm 3 mps 737 mmHg 71%
    14:00 +13°C° 0 mm 4 mps 738 mmHg 66%
    15:00 +13°C° 0.1 mm 3 mps 738 mmHg 67%
    16:00 +14°C° 0.1 mm 3 mps 737 mmHg 67%
    17:00 +14°C° 0.1 mm 3 mps 737 mmHg 67%
    18:00 +13°C° 0 mm 3 mps 737 mmHg 72%
    19:00 +11°C° 0 mm 3 mps 737 mmHg 77%
    20:00 +10°C° 0 mm 2 mps 737 mmHg 82%
    21:00 +10°C° 0 mm 2 mps 737 mmHg 82%
    22:00 +10°C° 0 mm 2 mps 738 mmHg 83%
    23:00 +9°C° 0 mm 2 mps 738 mmHg 83%

    Tomorrow, 24 April, Wednesday

    Time Temperature Precipitation Wind Pressure Humidity
    00:00 +9°C° 0 mm 2 mps 738 mmHg 82%
    01:00 +9°C° 0 mm 2 mps 738 mmHg 81%
    02:00 +9°C° 0 mm 2 mps 738 mmHg 81%
    03:00 +9°C° 0 mm 2 mps 738 mmHg 80%
    04:00 +10°C° 0 mm 1 mps 739 mmHg 80%
    05:00 +10°C° 0 mm 1 mps 739 mmHg 79%
    06:00 +11°C° 0 mm 1 mps 739 mmHg 76%
    07:00 +12°C° 0 mm 1 mps 739 mmHg 73%
    08:00 +13°C° 0 mm 1 mps 739 mmHg 69%
    09:00 +14°C° 0 mm 1 mps 739 mmHg 66%
    10:00 +16°C° 0 mm 1 mps 739 mmHg 62%
    11:00 +18°C° 0 mm 2 mps 739 mmHg 59%
    12:00 +19°C° 0 mm 2 mps 739 mmHg 57%
    13:00 +20°C° 0 mm 2 mps 739 mmHg 56%
    14:00 +21°C° 0 mm 3 mps 739 mmHg 55%
    15:00 +20°C° 0 mm 3 mps 738 mmHg 57%
    16:00 +20°C° 0 mm 3 mps 738 mmHg 60%
    17:00 +20°C° 0 mm 3 mps 738 mmHg 63%
    18:00 +18°C° 0 mm 2 mps 738 mmHg 71%
    19:00 +16°C° 0 mm 2 mps 738 mmHg 79%
    20:00 +14°C° 0 mm 1 mps 738 mmHg 87%
    21:00 +14°C° 0 mm 1 mps 738 mmHg 87%
    22:00 +14°C° 0 mm 1 mps 738 mmHg 88%
    23:00 +13°C° 0 mm 1 mps 739 mmHg 88%

    Day after tomorrow, 25 April, Thursday

    Time Temperature Precipitation Wind Pressure Humidity
    00:00 +13°C° 0 mm 1 mps 739 mmHg 88%
    01:00 +13°C° 0 mm 1 mps 739 mmHg 88%
    02:00 +12°C° 0 mm 1 mps 739 mmHg 88%
    03:00 +12°C° 0 mm 1 mps 739 mmHg 90%
    04:00 +11°C° 0 mm 1 mps 739 mmHg 91%
    05:00 +11°C° 0 mm 1 mps 739 mmHg 92%
    06:00 +12°C° 0 mm 1 mps 739 mmHg 88%
    07:00 +13°C° 0 mm 1 mps 740 mmHg 84%
    08:00 +15°C° 0 mm 1 mps 740 mmHg 80%
    09:00 +16°C° 0 mm 1 mps 740 mmHg 76%
    10:00 +18°C° 0 mm 2 mps 740 mmHg 71%
    11:00 +19°C° 0 mm 2 mps 740 mmHg 66%
    12:00 +20°C° 0 mm 2 mps 739 mmHg 65%
    13:00 +21°C° 0 mm 2 mps 739 mmHg 64%
    14:00 +23°C° 0 mm 2 mps 739 mmHg 62%
    15:00 +23°C° 0.3 mm 2 mps 738 mmHg 65%
    16:00 +21°C° 0.3 mm 2 mps 738 mmHg 68%
    17:00 +21°C° 0.3 mm 2 mps 738 mmHg 70%
    18:00 +19°C° 0.8 mm 2 mps 738 mmHg 76%
    19:00 +19°C° 0.8 mm 1 mps 738 mmHg 82%
    20:00 +16°C° 0.8 mm 1 mps 738 mmHg 88%
    21:00 +16°C° 0.3 mm 1 mps 738 mmHg 88%
    22:00 +16°C° 0.3 mm 1 mps 738 mmHg 89%
    23:00 +15°C° 0.3 mm 1 mps 738 mmHg 89%

    26 April, Friday

    Time Temperature Precipitation Wind Pressure Humidity
    00:00 +15°C° 0 mm 1 mps 738 mmHg 89%
    01:00 +14°C° 0 mm 1 mps 738 mmHg 89%
    02:00 +14°C° 0 mm 1 mps 738 mmHg 89%
    03:00 +14°C° 0 mm 1 mps 738 mmHg 89%
    04:00 +13°C° 0 mm 1 mps 738 mmHg 89%
    05:00 +13°C° 0 mm 1 mps 738 mmHg 90%
    06:00 +14°C° 0 mm 1 mps 738 mmHg 86%
    07:00 +16°C° 0 mm 1 mps 738 mmHg 82%
    08:00 +16°C° 0 mm 0 mps 738 mmHg 78%
    09:00 +20°C° 0 mm 1 mps 738 mmHg 73%
    10:00 +21°C° 0 mm 1 mps 738 mmHg 68%
    11:00 +23°C° 0 mm 1 mps 738 mmHg 63%
    12:00 +24°C° 0.1 mm 2 mps 738 mmHg 61%
    13:00 +24°C° 0.1 mm 2 mps 737 mmHg 59%
    14:00 +25°C° 0.1 mm 2 mps 737 mmHg 57%
    15:00 +25°C° 0.2 mm 2 mps 736 mmHg 59%
    16:00 +24°C° 0.2 mm 2 mps 736 mmHg 60%
    17:00 +24°C° 0.2 mm 2 mps 736 mmHg 62%
    18:00 +21°C° 0.1 mm 2 mps 736 mmHg 69%
    19:00 +21°C° 0.1 mm 1 mps 736 mmHg 76%
    20:00 +19°C° 0.1 mm 1 mps 736 mmHg 83%
    21:00 +18°C° 0 mm 1 mps 736 mmHg 83%
    22:00 +18°C° 0 mm 1 mps 736 mmHg 84%
    23:00 +18°C° 0 mm 1 mps 736 mmHg 85%

    27 April, Saturday

    Time Temperature Precipitation Wind Pressure Humidity
    00:00 +16°C° 0 mm 2 mps 736 mmHg 85%
    01:00 +16°C° 0 mm 2 mps 735 mmHg 85%
    02:00 +15°C° 0 mm 2 mps 735 mmHg 85%
    03:00 +15°C° 0 mm 2 mps 735 mmHg 84%
    04:00 +15°C° 0 mm 2 mps 734 mmHg 84%
    05:00 +14°C° 0 mm 2 mps 734 mmHg 83%
    06:00 +16°C° 0 mm 1 mps 734 mmHg 80%
    07:00 +18°C° 0 mm 1 mps 734 mmHg 77%
    08:00 +19°C° 0 mm 1 mps 734 mmHg 73%
    09:00 +21°C° 0.1 mm 1 mps 734 mmHg 70%
    10:00 +22°C° 0.1 mm 1 mps 734 mmHg 66%
    11:00 +23°C° 0.1 mm 1 mps 734 mmHg 62%
    12:00 +23°C° 0.6 mm 1 mps 733 mmHg 63%
    13:00 +23°C° 0.6 mm 1 mps 733 mmHg 64%
    14:00 +23°C° 0.6 mm 2 mps 732 mmHg 66%
    15:00 +23°C° 1.2 mm 2 mps 732 mmHg 70%
    16:00 +22°C° 1.2 mm 1 mps 731 mmHg 74%
    17:00 +21°C° 1.2 mm 1 mps 731 mmHg 78%
    18:00 +20°C° 2 mm 1 mps 731 mmHg 80%
    19:00 +19°C° 2 mm 1 mps 731 mmHg 82%
    20:00 +18°C° 2 mm 1 mps 731 mmHg 84%
    21:00 +18°C° 0.5 mm 1 mps 731 mmHg 84%
    22:00 +16°C° 0.5 mm 1 mps 732 mmHg 84%
    23:00 +16°C° 0.5 mm 2 mps 732 mmHg 84%

    28 April, Sunday

    Time Temperature Precipitation Wind Pressure Humidity
    00:00 +15°C° 0.2 mm 1 mps 732 mmHg 85%
    01:00 +15°C° 0.2 mm 1 mps 732 mmHg 85%
    02:00 +14°C° 0.2 mm 1 mps 732 mmHg 86%
    03:00 +14°C° 0 mm 2 mps 732 mmHg 87%
    04:00 +13°C° 0 mm 2 mps 732 mmHg 88%
    05:00 +13°C° 0 mm 2 mps 732 mmHg 89%
    06:00 +14°C° 0 mm 2 mps 732 mmHg 84%
    07:00 +15°C° 0 mm 2 mps 732 mmHg 78%
    08:00 +17°C° 0 mm 2 mps 733 mmHg 73%
    09:00 +18°C° 0 mm 2 mps 733 mmHg 66%
    10:00 +20°C° 0 mm 2 mps 733 mmHg 58%
    11:00 +21°C° 0 mm 2 mps 733 mmHg 50%
    12:00 +23°C° 0 mm 2 mps 732 mmHg 48%
    13:00 +23°C° 0 mm 2 mps 732 mmHg 47%
    14:00 +24°C° 0 mm 2 mps 732 mmHg 46%
    15:00 +23°C° 0 mm 2 mps 731 mmHg 49%
    16:00 +23°C° 0 mm 2 mps 731 mmHg 51%
    17:00 +21°C° 0 mm 2 mps 731 mmHg 54%
    18:00 +21°C° 0 mm 1 mps 731 mmHg 61%
    19:00 +19°C° 0 mm 1 mps 731 mmHg 67%
    20:00 +16°C° 0 mm 1 mps 731 mmHg 73%
    21:00 +16°C° 0 mm 1 mps 731 mmHg 75%
    22:00 +15°C° 0 mm 1 mps 732 mmHg 76%
    23:00 +15°C° 0 mm 1 mps 732 mmHg 77%
    Show more